Location: Newark
(32.2136°N, 35.2820°E)
Time: 17:58:41
(UTC+00:00)

Hubble Space Telescope - Visible Passes

Search period start: 23 September 2019 00:00
Search period end: 03 October 2019 00:00
Orbit: 536 x 540 km, 28.5° (Epoch: 22 September)

Date Brightness Start Highest point End Pass type
(mag) Time Alt. Az. Time Alt. Az. Time Alt. Az.
23 Sep 2.7 02:31:15 13° SW 02:32:28 15° SSW 02:34:47 10° S visible
24 Sep 2.9 02:21:42 11° SSW 02:21:49 12° SSW 02:23:14 10° S visible
28 Sep 3.0 17:02:04 10° SSW 17:03:16 14° S 17:03:16 14° S visible
29 Sep 2.5 16:50:59 10° SSW 16:53:35 19° SSE 16:53:35 19° SSE visible
30 Sep 2.1 16:40:02 10° SW 16:43:21 23° SSE 16:43:50 23° SSE visible
01 Oct 2.0 16:29:11 10° SW 16:32:43 28° SSE 16:34:01 23° SE visible
02 Oct 1.8 16:18:24 10° SW 16:22:06 32° SSE 16:24:08 21° ESE visible
02 Oct 3.7 17:59:01 10° WSW 17:59:28 13° WSW 17:59:28 13° WSW visible
